Probability
0 0 0 0 0 0 0 0 0 0 0 0 0 0 0 0 0 0 0 0 0 0 0 0 0 0 0 0 0 0 0 0 0 0 0 0 0 0 0 0 0 0 0 0 0 0 0 0 0
0 0 0 0 0 0 0 0 0 0 0 0 0 0 0 0 0 0 0 0 0 0 0 0 0 0 0 0 0 0 0 0 0 0 0 0 0 0 0 0 0 0 0 0 0 0 0 0 0
0 0 0 0 0 0 0 0 0 0 0 0 0 0 0 0 0 0 0 0 0 0 0 0 0 0 0 0 0 0 0 0 0 0 0 0 0 0 0 0 0 0 0 0 0 0 0 0 0
0 0 0 0 0 0 0 0 0 0 0 0 0 0 0 0 0 0 0 0 0 0 0 0 0 0 0 0 0 0 0 0 0 0 0 0 0 0 0 0 0 0 0 0 0 0 0 0 0
0 0 0 0 0 0 0 0 0 0 0 0 0 0 0 0 0 0 0 0 0 0 0 0 0 0 0 0 0 0 0 0 0 0 0 0 0 0 0 0 0 0 0 0 0 0 0 0 0
0 0 0 0 0 0 0 0 0 0 0 0 0 0 0 0 0 0 0 0 0 0 0 0 0 0 0 0 0 0 0 0 0 0 0 0 0 0 0 0 0 0 0 0 0 0 0 0 0
0 0 0 0 0 0 0 0 0 0 0 0 0 0 0 0 0 0 0 0 0 0 0 0 0 0 0 0 0 0 0 0 0 0 0 0 0 0 0 0 0 0 0 0 0 0 0 0 0
0 0 0 0 0 0 0 0 0 0 0 0 0 0 0 0 0 0 0 0 0 0 0 0 0 0 0 0 0 0 0 0 0 0 0 0 0 0 0 0 0 0 0 0 0 0 0 0 0
0 0 0 0 0 0 0 0 0 0 0 0 0 0 0 0 0 0 0 0 0 0 0 0 0 0 0 0 0 0 0 0 0 0 0 0 0 0 0 0 0 0 0 0 0 0 0 0 0
0 0 0 0 0 0 0 0 0 0 0 0 0 0 0 0 0 0 0 0 0 0 0 0 0 0 0 0 0 0 0 0 0 0 0 0 0 0 0 0 0 0 0 0 0 0 0 0 0
0 0 0 0 0 0 0 0 0 0 0 0 0 0 0 0 0 0 0 0 0 0 0 0 0 0 0 0 0 0 0 0 0 0 0 0 0 0 0 0 0 0 0 0 0 0 0 0 0
0 0 0 0 0 0 0 0 0 0 0 0 0 0 0 0 0 0 0 0 0 0 0 0 0 0 0 0 0 0 0 0 0 0 0 0 0 0 0 0 0 0 0 0 0 0 0 0 0
0 0 0 0 0 0 0 0 0 0 0 0 0 0 0 0 0 0 0 0 0 0 0 0 0 0 0 0 0 0 0 0 0 0 0 0 0 0 0 0 0 0 0 0 0 0 0 0 0
0 0 0 0 0 0 0 0 0 0 0 0 0 0 0 0 0 0 0 0 0 0 0 0 0 0 0 0 0 0 0 0 0 0 0 0 0 0 0 0 0 0 0 0 0 0 0 0 0
0 0 0 0 0 0 0 0 0 0 0 0 0 0 0 0 0 0 0 0 0 0 0 0 0 0 0 0 0 0 0 0 0 0 0 0 0 0 0 0 0 0 0 0 0 0 0 0 0
0 0 0 0 0 0 0 0 0 0 0 0 0 0 0 0 0 0 0 0 0 0 0 0 0 0 0 0 0 0 0 0 0 0 0 0 0 0 0 0 0 0 0 0 0 0 0 0 0
0 0 0 0 0 0 0 0 0 0 0 0 0 0 0 0 0 0 0 0 0 0 0 0 0 0 0 0 0 0 0 0 0 0 0 0 0 0 0 0 0 0 0 0 0 0 0 0 0
0 0 0 0 0 0 0 0 0 0 0 0 0 0 0 0 0 0 0 0 0 0 0 0 0 0 0 0 0 0 0 0 0 0 0 0 0 0 0 0 0 0 0 0 0 0 0 0 0
0 0 0 0 0 0 0 0 0 0 0 0 0 0 0 0 0 0 0 0 0 0 0 0 0 0 0 0 0 0 0 0 0 0 0 0 0 0 0 0 0 0 0 0 0 0 0 0 0
0 0 0 0 0 0 0 0 0 0 0 0 0 0 0 0 0 0 0 0 0 0 0 0 0 0 0 0 0 0 0 0 0 0 0 0 0 0 0 0 0 0 0 0 0 0 0 0 0
0 0 0 0 0 0 0 0 0 0 0 0 0 0 0 0 0 0 0 0 0 0 0 0 0 0 0 0 0 0 0 0 0 0 0 0 0 0 0 0 0 0 0 0 0 0 0 0 0
0 0 0 0 0 0 0 0 0 0 0 0 0 0 0 0 0 0 0 0 0 0 0 0 0 0 0 0 0 0 0 0 0 0 0 0 0 0 0 0 0 0 0 0 0 0 0 0 0
0 0 0 0 0 0 0 0 0 0 0 0 0 0 0 0 0 0 0 0 0 0 0 0 0 0 0 0 0 0 0 0 0 0 0 0 0 0 0 0 0 0 0 0 0 0 0 0 0
0 0 0 0 0 0 0 0 0 0 0 0 0 0 0 0 0 0 0 0 0 0 0 0 0 0 0 0 0 0 0 0 0 0 0 0 0 0 0 0 0 0 0 0 0 0 0 0 0
0 0 0 0 0 0 0 0 0 0 0 0 0 0 0 0 0 0 0 0 0 0 0 0 0 0 0 0 0 0 0 0 0 0 0 0 0 0 0 0 0 0 0 0 0 0 0 0 0
0 0 0 0 0 0 0 0 0 0 0 0 0 0 0 0 0 0 0 0 0 0 0 0 0 0 0 0 0 0 0 0 0 0 0 0 0 0 0 0 0 0 0 0 0 0 0 0 0
0 0 0 0 0 0 0 0 0 0 0 0 0 0 0 0 0 0 0 0 0 0 0 0 0 0 0 0 0 0 0 0 0 0 0 0 0 0 0 0 0 0 0 0 0 0 0 0 0
0 0 0 0 0 0 0 0 0 0 0 0 0 0 0 0 0 0 0 0 0 0 0 0 0 0 0 0 0 0 0 0 0 0 0 0 0 0 0 0 0 0 0 0 0 0 0 0 0
0 0 0 0 0 0 0 0 0 0 0 0 0 0 0 0 0 0 0 0 0 0 0 0 0 0 0 0 0 0 0 0 0 0 0 0 0 0 0 0 0 0 0 0 0 0 0 0 0
0 0 0 0 0 0 0 0 0 0 0 0 0 0 0 0 0 0 0 0 0 0 0 0 0 0 0 0 0 0 0 0 0 0 0 0 0 0 0 0 0 0 0 0 0 0 0 0 0
Wind_Speed
7 8 6 3 3 4 9 2 2 4 1 3 5 4 4 4 3 3 5 5 8 6 9 11 11 11 12 13 14 13 13 13 13 14 14 14 14 14 14 14 14 14 14 14 14 15 15 14 12
7 5 3 3 4 6 5 6 4 4 5 5 4 4 2 3 6 8 6 5 7 7 10 9 10 11 12 12 12 12 11 11 11 11 12 12 12 12 13 13 14 13 13 13 14 14 15 15 14
6 4 3 3 5 5 4 5 5 7 6 3 2 1 3 4 7 8 8 8 7 7 9 8 10 11 12 12 12 11 11 11 11 12 12 12 11 12 12 12 12 12 13 12 13 13 13 14 14
4 3 4 4 10 7 4 3 9 8 3 1 2 3 3 4 3 8 10 8 8 7 9 7 9 11 11 11 11 11 12 12 12 12 12 12 12 12 12 12 12 12 13 12 12 13 13 13 13
3 3 5 7 12 1 4 2 7 8 7 7 4 3 8 6 8 12 9 9 9 7 8 7 9 10 11 11 10 11 11 11 11 11 11 12 12 12 12 12 13 13 14 13 13 13 14 14 13
3 4 4 7 5 4 4 3 3 7 7 7 5 5 4 8 9 9 8 8 9 9 8 7 9 10 11 10 10 10 10 11 11 11 11 11 12 12 13 13 14 14 14 14 14 14 14 14 14
3 4 6 9 7 2 4 5 5 6 7 8 6 3 5 7 8 9 8 7 8 9 8 8 8 9 10 10 10 10 10 10 10 10 9 9 10 11 12 13 13 14 14 14 15 16 16 16 15
3 4 7 7 5 3 5 4 1 4 5 3 7 5 3 9 10 9 8 7 7 8 7 7 8 8 8 7 9 10 11 10 10 9 5 3 5 9 10 10 12 13 14 13 15 15 16 16 15
3 3 6 7 3 2 5 3 3 2 3 2 3 1 4 13 12 9 7 7 7 8 7 7 7 7 8 8 9 9 10 9 8 6 3 3 5 5 5 7 10 12 13 13 14 15 15 15 14
4 4 6 3 4 4 2 5 5 5 6 6 6 5 8 12 11 12 11 12 11 10 8 7 8 7 7 7 6 5 5 5 4 4 4 3 3 3 4 6 9 11 12 14 16 16 14 11 6
5 6 6 4 4 4 4 4 6 5 8 11 12 14 14 14 13 14 14 13 12 11 9 8 8 7 6 5 5 3 3 3 4 5 3 3 3 3 3 2 4 5 7 6 9 8 6 6 6
5 8 9 5 1 1 4 4 5 11 11 5 2 5 17 16 18 18 17 13 11 12 13 10 9 8 7 6 4 4 3 3 3 4 2 3 3 3 2 2 3 3 3 5 5 4 7 7 8
7 8 7 6 3 5 6 9 7 12 11 11 7 4 15 16 16 15 13 12 12 13 14 12 10 10 8 7 5 5 5 4 5 4 3 3 3 3 2 2 2 3 4 5 5 5 6 6 7
5 7 9 7 8 7 8 10 8 14 10 11 11 11 13 16 17 14 14 15 15 14 14 13 12 10 9 7 5 5 5 5 5 4 5 3 3 3 2 3 3 3 4 4 3 5 5 5 5
4 7 11 12 13 6 4 10 13 18 10 11 11 11 12 14 14 16 16 15 14 12 12 12 11 10 10 9 8 5 6 5 5 5 5 4 4 3 2 3 2 3 3 3 3 4 4 5 5
4 6 8 9 10 8 7 13 12 13 11 12 10 10 10 13 14 13 12 11 10 10 12 12 11 10 10 8 7 5 5 5 5 5 5 5 5 4 3 2 2 2 2 2 3 3 4 5 5
7 7 11 11 9 9 10 12 8 4 3 8 9 11 13 13 15 14 13 13 12 12 12 12 10 10 9 8 6 6 5 5 5 5 4 5 5 4 3 3 2 2 1 2 3 3 3 5 6
9 10 13 15 5 9 11 15 11 9 9 11 13 14 14 14 14 15 15 13 13 13 13 12 10 10 9 7 5 5 5 4 5 4 5 6 5 4 3 3 2 2 2 2 2 4 5 4 5
13 13 18 21 12 10 16 18 14 11 12 14 16 17 15 12 11 13 15 13 13 13 14 14 12 11 10 8 8 7 6 5 5 5 7 6 5 5 4 3 3 2 1 2 3 4 5 4 4
11 13 19 18 8 7 10 15 12 12 17 20 18 20 17 9 6 9 12 12 14 15 15 15 15 14 12 9 7 5 7 5 5 5 6 7 6 5 4 4 3 1 1 2 3 4 3 4 4
14 14 17 18 11 6 6 11 14 13 17 16 14 20 15 10 10 11 11 11 13 15 17 16 16 14 13 11 7 6 5 5 4 6 6 6 7 6 5 5 3 1 0 2 2 3 4 4 3
19 10 12 13 9 7 7 14 8 9 11 12 14 18 15 9 10 12 12 13 15 15 14 14 15 14 14 13 11 13 10 8 7 7 6 7 7 7 6 5 4 2 2 2 2 3 3 3 4
9 1 2 3 5 7 5 17 9 8 11 12 14 16 16 8 10 12 14 14 13 12 13 13 13 13 13 12 13 12 8 6 5 7 8 7 6 7 7 6 5 3 2 2 2 3 4 4 4
3 0 2 3 2 9 10 15 12 9 13 10 12 14 15 7 10 10 10 11 10 11 11 12 13 13 13 13 12 13 12 10 12 10 9 7 5 5 7 7 6 5 3 2 3 3 4 4 5
4 4 3 5 6 13 8 13 10 10 10 12 13 16 12 10 11 11 12 14 14 15 14 13 14 14 13 14 13 13 13 15 16 13 11 9 6 5 7 6 6 4 3 2 2 3 5 5 5
11 10 10 9 12 14 7 14 9 8 10 12 15 14 8 10 10 12 14 15 16 16 16 17 18 17 15 16 14 12 12 10 9 11 10 9 7 6 7 7 6 4 3 3 2 3 4 5 5
9 10 8 6 9 13 11 11 7 7 10 14 14 6 7 8 9 10 11 13 14 17 20 21 21 18 17 16 14 12 11 9 10 11 9 7 7 6 8 7 6 4 4 3 2 3 4 5 5
3 4 4 6 6 13 19 18 12 11 16 10 4 4 6 8 9 10 10 11 13 15 16 15 16 17 14 15 15 12 11 9 9 10 11 9 8 8 8 7 5 4 3 2 2 3 4 5 6
8 5 7 6 7 8 12 18 3 4 4 5 6 8 8 10 12 12 12 12 11 10 11 14 14 14 14 15 13 12 11 10 9 9 11 10 8 8 7 6 5 4 3 3 3 4 4 7 8
13 16 14 10 11 8 10 29 4 5 2 5 8 8 8 10 11 12 11 10 11 12 12 14 15 15 14 14 12 12 11 11 10 9 10 10 9 7 7 6 4 4 4 4 5 5 6 8 9
Wind_Direction
273 252 256 266 253 235 250 143 107 94 70 45 6 69 354 360 27 124 141 116 99 101 103 81 75 77 77 77 74 70 66 64 64 67 67 62 55 50 49 46 39 33 31 30 32 34 32 25 16
288 279 274 249 253 265 255 122 148 145 79 69 22 41 351 70 91 118 145 129 108 100 85 79 86 86 86 86 84 82 81 79 76 73 70 66 61 55 51 46 40 33 28 24 23 25 25 19 13
282 279 265 250 250 276 24 98 130 88 94 129 149 336 314 68 115 128 131 137 122 107 98 88 97 94 90 86 84 85 85 82 79 75 68 65 62 59 53 48 41 34 28 26 26 23 22 18 13
278 235 243 247 266 283 39 77 114 115 134 192 178 186 115 87 86 116 131 147 125 110 95 87 97 100 98 95 93 90 87 83 80 77 70 66 61 56 51 45 39 33 26 23 24 18 14 12 11
229 253 241 246 252 214 83 46 119 149 175 188 209 244 152 134 102 122 143 143 134 119 100 98 103 109 106 101 96 91 86 83 79 75 70 64 59 53 47 40 35 31 26 22 21 13 6 359 356
258 242 263 271 295 99 128 152 180 191 188 152 180 251 137 142 138 144 149 152 140 122 114 115 110 105 103 102 100 96 90 84 77 72 67 63 58 53 45 38 33 30 25 20 16 11 4 357 351
263 278 267 284 308 288 137 138 215 218 212 166 177 226 136 164 156 149 151 158 136 133 143 146 138 116 107 104 106 106 101 94 85 79 73 67 62 55 46 35 30 27 20 15 11 6 0 355 349
295 289 273 272 287 328 107 131 232 261 256 149 157 216 180 168 149 148 153 156 141 144 157 155 149 141 132 121 121 121 118 111 102 93 86 69 69 63 56 35 28 27 20 14 11 4 357 352 348
243 251 263 282 310 320 125 190 177 8 297 146 196 178 86 129 140 153 160 171 167 167 166 159 156 152 143 139 140 135 132 133 129 114 94 53 57 40 57 45 29 27 19 15 14 3 359 356 355
225 243 262 331 332 322 182 206 221 185 235 222 206 161 132 142 159 176 184 188 185 182 177 166 164 161 156 154 156 158 153 139 110 90 75 66 82 57 47 45 31 24 22 17 11 5 6 0 349
227 244 290 316 301 319 299 245 244 233 238 224 214 195 166 168 181 193 199 196 190 179 177 173 168 163 160 146 154 151 131 125 108 90 91 97 75 55 47 40 19 15 25 18 3 1 355 350 342
255 262 267 279 85 270 257 254 248 228 234 267 270 191 169 181 193 201 203 199 185 180 180 172 168 161 161 151 155 145 140 142 124 111 67 92 94 66 55 52 21 19 21 10 6 352 350 344 334
237 262 272 267 211 227 261 258 256 253 242 250 227 190 172 194 203 208 206 198 187 185 177 173 168 162 158 154 163 159 149 146 133 132 99 81 100 85 70 67 37 26 26 17 359 344 341 333 325
296 299 291 266 230 217 235 258 255 253 231 240 231 205 197 202 206 206 205 202 196 186 174 167 167 162 156 161 162 154 144 140 138 128 121 97 103 100 75 65 43 38 32 7 336 328 327 315 310
330 292 277 246 223 214 205 263 235 251 235 233 235 230 214 215 209 209 207 204 196 181 166 164 165 160 161 165 163 154 146 148 139 131 137 135 115 103 90 75 54 52 26 350 335 333 324 313 313
236 254 266 253 200 153 159 254 245 238 226 230 230 240 236 223 216 212 206 197 191 172 164 163 168 163 163 161 154 145 145 143 138 141 149 144 126 115 104 89 72 53 26 353 336 324 320 313 313
223 230 247 257 173 159 190 246 254 256 248 252 245 240 241 234 215 203 191 183 181 171 163 160 161 162 161 153 149 142 140 141 142 144 150 139 129 127 120 109 96 57 27 354 333 333 324 312 312
241 257 283 284 214 185 212 242 257 275 262 256 260 257 250 244 223 197 184 177 170 163 158 157 156 160 155 145 141 131 139 151 148 152 145 137 141 144 131 121 75 51 25 351 334 317 304 295 297
255 269 273 275 275 213 228 243 251 259 268 264 263 267 263 252 238 187 173 164 157 155 156 159 163 168 162 162 160 155 168 167 160 158 148 150 153 150 138 115 87 59 6 326 317 303 302 307 314
266 274 274 280 284 223 240 254 259 252 256 257 261 267 265 252 232 165 162 159 160 159 160 165 172 177 175 174 169 158 157 169 166 156 153 159 157 156 134 121 129 125 351 321 307 309 317 316 342
251 249 262 267 279 225 248 260 246 241 243 248 251 260 261 234 201 170 165 166 162 167 171 176 177 178 176 169 162 144 129 119 143 161 162 164 157 153 147 147 144 138 253 280 303 323 305 296 312
262 252 260 265 269 254 232 279 238 235 249 243 240 258 266 233 186 169 169 172 176 176 173 175 178 177 177 173 170 165 167 169 178 170 161 156 160 164 155 150 148 162 212 256 281 287 278 280 277
256 82 286 274 261 271 245 273 259 216 237 230 228 246 264 237 176 170 174 178 177 173 175 179 178 181 180 178 175 174 173 167 148 146 147 155 166 165 158 161 154 167 196 236 262 275 267 254 253
108 117 264 239 243 251 205 246 270 202 228 217 223 239 248 200 168 168 165 162 168 173 176 180 184 186 181 179 183 186 176 165 153 156 161 168 171 165 167 162 157 169 183 217 243 257 264 260 260
171 172 271 267 237 246 193 237 255 198 193 191 208 230 227 172 165 167 166 172 178 182 184 184 188 191 184 182 190 196 187 174 172 168 169 169 171 168 172 153 152 157 171 198 234 255 260 262 263
192 182 188 233 255 273 251 245 241 209 204 202 211 224 182 164 169 177 182 184 185 185 184 187 193 195 188 188 193 197 197 185 177 170 167 170 168 159 148 140 146 160 181 207 225 252 260 264 263
175 212 211 222 281 286 258 253 242 218 242 230 228 195 165 177 181 188 187 187 188 189 191 193 195 195 193 191 189 193 197 191 177 167 159 159 153 148 148 146 150 168 187 198 219 243 259 266 265
229 205 189 196 227 266 279 278 273 237 238 230 187 191 216 198 196 196 194 193 197 198 196 193 196 198 193 189 189 190 188 185 175 165 162 157 154 149 147 146 159 175 179 187 231 250 260 270 270
186 210 205 208 199 210 270 272 158 106 123 169 207 223 224 205 201 203 202 197 194 191 190 193 196 195 194 191 185 182 179 173 172 173 166 158 153 146 144 149 164 176 187 207 236 250 266 270 273
206 201 187 203 231 224 238 262 197 304 230 196 209 215 214 204 203 204 200 187 185 191 193 196 198 199 197 186 177 176 168 167 173 175 166 153 144 138 143 148 165 192 212 220 236 253 261 266 272